N709LP KPWM-CYHZ

Flight info

Callsign N709LP
Flight time 0h 53m
Altitude 39000
Route ALLEX FUNDY5
Aircraft CL60/M-SBDE1E2E3FGHIJ1J4J5J7M3RWXYZ/LB1V1D1

Departure

Time 2026-05-05 20:43
Airport Portland International Jetport (KPWM)

Arrival

Time 2026-05-05 21:36
Airport Halifax / Stanfield International Airport (CYHZ)
Time Latitude Longitude Altitude Speed Heading
2026-05-05 20:12 43.64975 -70.30843 58 ft 0 kts 177°
2026-05-05 20:31 43.64963 -70.30840 57 ft 4 kts 157°
2026-05-05 20:31 43.64957 -70.30785 55 ft 9 kts 88°
2026-05-05 20:32 43.64962 -70.30720 53 ft 7 kts 39°
2026-05-05 20:32 43.65030 -70.30718 52 ft 12 kts 359°
2026-05-05 20:32 43.65115 -70.30720 51 ft 12 kts 357°
2026-05-05 20:32 43.65207 -70.30759 50 ft 9 kts 340°
2026-05-05 20:33 43.65263 -70.30788 50 ft 10 kts 340°
2026-05-05 20:33 43.65327 -70.30819 50 ft 5 kts 340°
2026-05-05 20:33 43.65338 -70.30824 50 ft 0 kts 341°
2026-05-05 20:41 43.65360 -70.30834 50 ft 7 kts 341°
2026-05-05 20:41 43.65418 -70.30808 46 ft 11 kts 64°
2026-05-05 20:41 43.65409 -70.30719 42 ft 6 kts 161°
2026-05-05 20:42 43.65403 -70.30716 42 ft 0 kts 164°
2026-05-05 20:42 43.65394 -70.30713 42 ft 17 kts 163°
2026-05-05 20:42 43.64889 -70.30503 44 ft 128 kts 161°
2026-05-05 20:42 43.63844 -70.30086 637 ft 169 kts 171°
2026-05-05 20:43 43.62801 -70.29792 2222 ft 154 kts 185°
2026-05-05 20:43 43.61897 -70.29947 3652 ft 138 kts 205°
2026-05-05 20:43 43.61099 -70.30499 4837 ft 134 kts 220°
2026-05-05 20:43 43.60325 -70.31042 5906 ft 135 kts 194°
2026-05-05 20:44 43.59401 -70.30716 6822 ft 147 kts 170°
2026-05-05 20:44 43.58487 -70.30045 7550 ft 162 kts 162°
2026-05-05 20:44 43.57685 -70.28719 8170 ft 206 kts 120°
2026-05-05 20:44 43.57470 -70.26459 8214 ft 275 kts 84°
2026-05-05 20:45 43.59551 -70.21458 9582 ft 321 kts 43°
2026-05-05 20:45 43.61253 -70.19522 10624 ft 324 kts 29°
2026-05-05 20:45 43.63217 -70.18022 11770 ft 325 kts 26°
2026-05-05 20:46 43.64983 -70.15958 12531 ft 350 kts 52°
2026-05-05 20:46 43.66039 -70.12826 13091 ft 371 kts 74°
2026-05-05 20:46 43.66782 -70.09352 13902 ft 381 kts 75°
2026-05-05 20:46 43.67512 -70.05813 14907 ft 384 kts 76°
2026-05-05 20:47 43.68240 -70.02296 15851 ft 387 kts 75°
2026-05-05 20:47 43.69029 -69.98739 16737 ft 390 kts 73°
2026-05-05 20:47 43.69925 -69.95162 17574 ft 394 kts 72°
2026-05-05 20:47 43.70830 -69.91594 18407 ft 398 kts 72°
2026-05-05 20:48 43.71744 -69.87993 19180 ft 402 kts 72°
2026-05-05 20:48 43.72672 -69.84341 19897 ft 407 kts 72°
2026-05-05 20:48 43.73615 -69.80634 20612 ft 412 kts 72°
2026-05-05 20:48 43.74579 -69.76843 21264 ft 417 kts 72°
2026-05-05 20:49 43.75536 -69.73082 21932 ft 422 kts 72°
2026-05-05 20:49 43.76524 -69.69197 22593 ft 426 kts 73°
2026-05-05 20:49 43.77501 -69.65356 23244 ft 430 kts 73°
2026-05-05 20:49 43.78502 -69.61417 23812 ft 436 kts 73°
2026-05-05 20:50 43.79518 -69.57416 24458 ft 439 kts 72°
2026-05-05 20:50 43.80528 -69.53437 25052 ft 442 kts 73°
2026-05-05 20:50 43.81559 -69.49369 25653 ft 446 kts 72°
2026-05-05 20:50 43.82578 -69.45346 26264 ft 447 kts 72°
2026-05-05 20:51 43.83611 -69.41261 26836 ft 450 kts 72°
2026-05-05 20:51 43.84551 -69.37534 27304 ft 452 kts 72°
2026-05-05 20:51 43.85588 -69.33424 27749 ft 457 kts 73°
2026-05-05 20:51 43.86636 -69.29262 28230 ft 459 kts 72°
2026-05-05 20:52 43.87691 -69.25066 28668 ft 462 kts 72°
2026-05-05 20:52 43.88757 -69.20814 28799 ft 470 kts 72°
2026-05-05 20:52 43.90898 -69.12259 28799 ft 476 kts 72°
2026-05-05 20:53 43.92591 -69.03307 28862 ft 483 kts 84°
2026-05-05 20:53 43.92982 -68.98720 29238 ft 479 kts 89°
2026-05-05 20:53 43.92990 -68.94157 29672 ft 477 kts 93°
2026-05-05 20:54 43.92853 -68.89555 30132 ft 475 kts 101°
2026-05-05 20:54 43.92081 -68.85097 29984 ft 476 kts 112°
2026-05-05 20:54 43.90970 -68.80878 29807 ft 467 kts 111°
2026-05-05 20:54 43.90449 -68.76437 29773 ft 470 kts 93°
2026-05-05 20:55 43.90880 -68.71967 29645 ft 475 kts 75°
2026-05-05 20:55 43.92273 -68.67772 29520 ft 475 kts 57°
2026-05-05 20:55 43.94403 -68.64342 29385 ft 474 kts 44°
2026-05-05 20:55 43.96790 -68.61166 29177 ft 474 kts 43°
2026-05-05 20:56 43.99152 -68.58067 29007 ft 472 kts 43°
2026-05-05 20:56 44.01547 -68.54928 28832 ft 472 kts 43°
2026-05-05 20:56 44.06100 -68.48360 28812 ft 471 kts 56°
2026-05-05 20:57 44.07669 -68.44412 28791 ft 471 kts 68°
2026-05-05 20:57 44.08767 -68.40152 28808 ft 469 kts 73°
2026-05-05 20:57 44.10806 -68.31569 28806 ft 471 kts 74°
2026-05-05 20:58 44.12858 -68.22946 28821 ft 472 kts 74°
2026-05-05 20:58 44.14908 -68.14327 28819 ft 472 kts 74°
2026-05-05 20:59 44.16972 -68.05630 28827 ft 473 kts 74°
2026-05-05 20:59 44.19035 -67.96923 28823 ft 473 kts 74°
2026-05-05 21:00 44.21091 -67.88216 28821 ft 474 kts 74°
2026-05-05 21:00 44.23132 -67.79553 28829 ft 474 kts 74°
2026-05-05 21:01 44.25177 -67.70840 28844 ft 473 kts 74°
2026-05-05 21:01 44.27207 -67.62161 28831 ft 473 kts 74°
2026-05-05 21:02 44.29247 -67.53409 28843 ft 473 kts 74°
2026-05-05 21:02 44.31275 -67.44675 28854 ft 474 kts 74°
2026-05-05 21:03 44.33299 -67.35930 28884 ft 474 kts 74°
2026-05-05 21:03 44.35333 -67.27102 28873 ft 475 kts 75°
2026-05-05 21:04 44.37352 -67.18305 28879 ft 475 kts 75°
2026-05-05 21:04 44.39364 -67.09508 28876 ft 475 kts 75°
2026-05-05 21:05 44.41365 -67.00685 28874 ft 475 kts 76°
2026-05-05 21:05 44.43044 -66.91805 28884 ft 474 kts 79°
2026-05-05 21:06 44.44561 -66.82847 28888 ft 474 kts 79°
2026-05-05 21:06 44.46079 -66.73882 28882 ft 474 kts 79°
2026-05-05 21:07 44.47603 -66.64864 28877 ft 474 kts 79°
2026-05-05 21:07 44.49116 -66.55888 28883 ft 474 kts 79°
2026-05-05 21:08 44.50616 -66.46951 28885 ft 474 kts 79°
2026-05-05 21:08 44.52113 -66.38001 28890 ft 473 kts 79°
2026-05-05 21:09 44.53579 -66.29204 28901 ft 473 kts 79°
2026-05-05 21:09 44.55072 -66.20200 28907 ft 473 kts 79°
2026-05-05 21:10 44.56561 -66.11171 28912 ft 474 kts 79°
2026-05-05 21:10 44.58046 -66.02132 28903 ft 475 kts 79°
2026-05-05 21:11 44.59520 -65.93108 28906 ft 475 kts 79°
2026-05-05 21:11 44.61001 -65.84001 28917 ft 475 kts 79°
2026-05-05 21:12 44.62466 -65.74940 28916 ft 474 kts 79°
2026-05-05 21:12 44.63920 -65.65904 28907 ft 473 kts 79°
2026-05-05 21:13 44.65361 -65.56898 28918 ft 472 kts 79°
2026-05-05 21:13 44.66790 -65.47916 28919 ft 472 kts 79°
2026-05-05 21:14 44.68216 -65.38909 28914 ft 471 kts 79°
2026-05-05 21:14 44.69613 -65.30028 28668 ft 475 kts 80°
2026-05-05 21:15 44.70299 -65.25481 28184 ft 474 kts 81°
2026-05-05 21:15 44.71175 -65.21045 27722 ft 475 kts 73°
2026-05-05 21:15 44.72255 -65.16653 27454 ft 471 kts 72°
2026-05-05 21:15 44.73452 -65.12426 27325 ft 466 kts 67°
2026-05-05 21:16 44.74862 -65.08337 26952 ft 469 kts 64°
2026-05-05 21:16 44.76170 -65.04095 26507 ft 472 kts 72°
2026-05-05 21:16 44.77103 -64.99699 26164 ft 466 kts 76°
2026-05-05 21:16 44.77828 -64.95306 25661 ft 458 kts 82°
2026-05-05 21:17 44.78147 -64.90917 25136 ft 447 kts 91°
2026-05-05 21:17 44.78195 -64.86649 24560 ft 441 kts 95°
2026-05-05 21:17 44.77949 -64.82310 23990 ft 446 kts 102°
2026-05-05 21:17 44.77404 -64.77978 23616 ft 452 kts 101°
2026-05-05 21:18 44.77416 -64.73502 23054 ft 460 kts 85°
2026-05-05 21:18 44.77464 -64.72969 22959 ft 460 kts 84°
2026-05-05 21:18 44.77990 -64.68713 22038 ft 453 kts 79°
2026-05-05 21:19 44.79005 -64.64611 21629 ft 443 kts 66°
2026-05-05 21:19 44.80346 -64.60744 21226 ft 441 kts 63°
2026-05-05 21:19 44.81645 -64.57035 20880 ft 422 kts 66°
2026-05-05 21:19 44.81944 -64.56062 20732 ft 418 kts 69°
2026-05-05 21:20 44.82471 -64.52103 19961 ft 404 kts 98°
2026-05-05 21:20 44.81801 -64.48469 19673 ft 374 kts 120°
2026-05-05 21:20 44.80739 -64.45124 19062 ft 385 kts 113°
2026-05-05 21:20 44.80304 -64.41313 18442 ft 415 kts 92°
2026-05-05 21:21 44.80613 -64.37235 18090 ft 420 kts 83°
2026-05-05 21:21 44.81023 -64.33238 17866 ft 402 kts 85°
2026-05-05 21:21 44.81374 -64.29394 17251 ft 396 kts 85°
2026-05-05 21:21 44.81831 -64.25626 16503 ft 390 kts 79°
2026-05-05 21:22 44.82614 -64.22087 16415 ft 366 kts 68°
2026-05-05 21:22 44.83884 -64.19064 15990 ft 355 kts 53°
2026-05-05 21:22 44.85384 -64.16345 15378 ft 352 kts 51°
2026-05-05 21:22 44.86906 -64.13635 14736 ft 350 kts 51°
2026-05-05 21:23 44.88409 -64.10957 14158 ft 346 kts 51°
2026-05-05 21:23 44.89887 -64.08331 13567 ft 343 kts 51°
2026-05-05 21:23 44.91374 -64.05676 12952 ft 340 kts 51°
2026-05-05 21:23 44.92806 -64.03078 12399 ft 337 kts 55°
2026-05-05 21:24 44.93743 -64.00081 11791 ft 333 kts 83°
2026-05-05 21:24 44.93751 -63.96861 11174 ft 327 kts 100°
2026-05-05 21:24 44.93491 -63.93721 10609 ft 324 kts 101°
2026-05-05 21:24 44.93207 -63.90580 10044 ft 320 kts 101°
2026-05-05 21:25 44.92925 -63.87505 9440 ft 318 kts 101°
2026-05-05 21:25 44.92647 -63.84402 8834 ft 316 kts 101°
2026-05-05 21:25 44.92334 -63.81368 8234 ft 316 kts 108°
2026-05-05 21:25 44.91553 -63.78423 7769 ft 322 kts 119°
2026-05-05 21:26 44.91034 -63.75380 7553 ft 326 kts 95°
2026-05-05 21:26 44.91426 -63.72205 7089 ft 329 kts 68°
2026-05-05 21:26 44.92429 -63.69391 6908 ft 315 kts 62°
2026-05-05 21:26 44.93444 -63.66755 6870 ft 299 kts 62°
2026-05-05 21:27 44.94438 -63.64189 6671 ft 290 kts 62°
2026-05-05 21:27 44.95398 -63.61718 6327 ft 288 kts 62°
2026-05-05 21:27 44.96359 -63.59248 5958 ft 287 kts 59°
2026-05-05 21:27 44.97489 -63.56973 5438 ft 279 kts 51°
2026-05-05 21:28 44.98826 -63.55026 4822 ft 274 kts 39°
2026-05-05 21:28 45.00338 -63.53434 4607 ft 274 kts 33°
2026-05-05 21:28 45.01913 -63.51857 4376 ft 278 kts 33°
2026-05-05 21:28 45.03479 -63.50258 4164 ft 279 kts 37°
2026-05-05 21:29 45.04736 -63.48179 3935 ft 279 kts 63°
2026-05-05 21:29 45.05290 -63.45607 3707 ft 269 kts 91°
2026-05-05 21:29 45.05127 -63.43119 3486 ft 243 kts 115°
2026-05-05 21:29 45.04483 -63.41074 3272 ft 215 kts 134°
2026-05-05 21:30 45.03693 -63.39437 3211 ft 194 kts 139°
2026-05-05 21:30 45.02771 -63.38173 3075 ft 170 kts 169°
2026-05-05 21:30 45.01725 -63.38055 3005 ft 146 kts 201°
2026-05-05 21:30 45.00818 -63.38668 3017 ft 143 kts 216°
2026-05-05 21:31 45.00000 -63.39463 3007 ft 143 kts 217°
2026-05-05 21:31 44.99172 -63.40272 2961 ft 143 kts 217°
2026-05-05 21:31 44.98357 -63.41076 2838 ft 136 kts 217°
2026-05-05 21:31 44.97656 -63.41762 2634 ft 110 kts 217°
2026-05-05 21:32 44.97068 -63.42342 2410 ft 99 kts 218°
2026-05-05 21:32 44.96518 -63.42898 2266 ft 97 kts 218°
2026-05-05 21:32 44.95969 -63.43453 2151 ft 97 kts 218°
2026-05-05 21:32 44.95418 -63.44006 2035 ft 97 kts 216°
2026-05-05 21:33 44.94865 -63.44555 1908 ft 96 kts 217°
2026-05-05 21:33 44.94320 -63.45096 1784 ft 95 kts 215°
2026-05-05 21:33 44.93776 -63.45636 1659 ft 95 kts 215°
2026-05-05 21:33 44.93233 -63.46178 1522 ft 95 kts 216°
2026-05-05 21:34 44.92659 -63.46721 1337 ft 105 kts 212°
2026-05-05 21:34 44.92086 -63.47263 1267 ft 103 kts 216°
2026-05-05 21:34 44.91513 -63.47853 1091 ft 97 kts 216°
2026-05-05 21:34 44.90948 -63.48388 960 ft 99 kts 214°
2026-05-05 21:35 44.90377 -63.48957 829 ft 105 kts 216°
2026-05-05 21:35 44.89818 -63.49526 683 ft 101 kts 215°
2026-05-05 21:35 44.89214 -63.50106 582 ft 101 kts 216°
2026-05-05 21:35 44.88649 -63.50666 470 ft 96 kts 215°
2026-05-05 21:36 44.88140 -63.51175 449 ft 81 kts 212°
2026-05-05 21:36 44.87776 -63.51530 453 ft 53 kts 215°
2026-05-05 21:36 44.87554 -63.51751 458 ft 26 kts 213°
2026-05-05 21:36 44.87453 -63.51917 462 ft 16 kts 250°
2026-05-05 21:37 44.87450 -63.52045 462 ft 1 kts 294°
2026-05-05 21:37 44.87473 -63.52099 462 ft 7 kts 307°
2026-05-05 21:37 44.87528 -63.52138 460 ft 9 kts 319°
2026-05-05 21:37 44.87567 -63.52196 459 ft 8 kts 328°
2026-05-05 21:38 44.87618 -63.52190 459 ft 8 kts 14°
2026-05-05 21:38 44.87663 -63.52177 458 ft 7 kts 17°
2026-05-05 21:38 44.87690 -63.52158 458 ft 0 kts 28°